Diyarbakir, Turkey

1:34 AM +03 on March 27, 2017 (GMT +0300)
Diyarbakir

Weather History for LTCC - August, 2013

Change the Weather History Date:

Monday, August 5, 2013

  Actual Average Record
Temperature  
Mean Temperature 84 °F -  
Max Temperature 97 °F 99 °F 109 °F (2006)
Min Temperature 71 °F 69 °F 65 °F (2012)
Cooling Degree Days 19    
Growing Degree Days 34 (Base 50)    
Moisture  
Dew Point 35 °F    
Average Humidity 18    
Maximum Humidity 29    
Minimum Humidity 5    
Precipitation  
Precipitation 0.00 in 0.00 in - ()
Sea Level Pressure  
Sea Level Pressure 29.65 in    
Wind  
Wind Speed 17 mph ()    
Max Wind Speed 29 mph    
Max Gust Speed 31 mph    
Visibility 12.0 miles    
Events      
Averages and records for this station are not official NWS values.
T = Trace of Precipitation, MM = Missing Value Source: Averaged Metar Reports

Daily Weather History Graph

Daily Weather History Graph

Search for Another Location

Airport or City:

Trip Planner

Search our weather history database for the weather conditions in past years. The results will help you decide how hot, cold, wet, or windy it might be!

Date:

Astronomy

Aug. 05, 2013 Rise Set
Actual Time 5:25 AM EEST 7:24 PM EEST
Civil Twilight 4:56 AM EEST 7:52 PM EEST
Nautical Twilight 4:21 AM EEST 8:27 PM EEST
Astronomical Twilight 3:44 AM EEST 9:05 PM EEST
Moon 4:01 AM EEST (8/5) 6:11 PM EEST (8/5)
Length of Visible Light 14h 55m
Length of Day
13h 58m
Waning Crescent, 2% of the Moon is Illuminated
Aug 5
Waning Crescent
Aug 7
New
Aug 14
First Quarter
Aug 21
Full
Aug 28
Last Quarter

Hourly Weather History & Observations

Time (EEST) Temp. Dew Point Humidity Pressure Visibility Wind Dir Wind Speed Gust Speed Precip Events Conditions
12:20 AM 78.8 °F 39.2 °F 24% 29.65 in - NW 28.8 mph - N/A   Clear
12:50 AM 77.0 °F 42.8 °F 29% 29.65 in - WNW 25.3 mph - N/A   Clear
1:20 AM 77.0 °F 39.2 °F 26% 29.65 in - NW 26.5 mph - N/A   Clear
1:50 AM 75.2 °F 41.0 °F 29% 29.65 in - WNW 21.9 mph - N/A   Clear
2:20 AM 75.2 °F 39.2 °F 27% 29.65 in - NW 20.7 mph - N/A   Clear
2:50 AM 73.4 °F 39.2 °F 29% 29.65 in - NW 19.6 mph - N/A   Clear
3:00 AM 74 °F 38 °F 16% 29.51 in 12 mi NW 19.6 mph - -  
3:20 AM 73.4 °F 37.4 °F 27% 29.65 in - NW 17.3 mph - N/A   Clear
3:50 AM 73.4 °F 37.4 °F 27% 29.65 in - NW 19.6 mph - N/A   Clear
4:20 AM 73.4 °F 37.4 °F 27% 29.65 in - NW 18.4 mph - N/A   Clear
4:50 AM 71.6 °F 37.4 °F 29% 29.65 in - NW 16.1 mph - N/A   Clear
5:20 AM 71.6 °F 35.6 °F 27% 29.68 in - NW 12.7 mph - N/A   Clear
5:50 AM 71.6 °F 35.6 °F 27% 29.68 in - NW 16.1 mph - N/A   Clear
6:20 AM 73.4 °F 35.6 °F 25% 29.68 in - NW 15.0 mph - N/A   Clear
6:50 AM 75.2 °F 35.6 °F 24% 29.68 in - NW 15.0 mph - N/A   Clear
7:20 AM 77.0 °F 35.6 °F 22% 29.68 in - NW 15.0 mph - N/A   Clear
7:50 AM 78.8 °F 35.6 °F 21% 29.71 in - NNW 15.0 mph - N/A   Clear
8:20 AM 80.6 °F 35.6 °F 20% 29.71 in - North 18.4 mph - N/A   Clear
8:50 AM 82.4 °F 33.8 °F 17% 29.68 in - North 18.4 mph - N/A   Clear
9:00 AM 82 °F 34 °F 9% 29.55 in 12 mi North 18.4 mph - -  
9:20 AM 82.4 °F 33.8 °F 17% 29.68 in - NNW 20.7 mph - N/A   Clear
9:50 AM 86.0 °F 33.8 °F 15% 29.68 in - North 16.1 mph - N/A   Clear
10:20 AM 86.0 °F 32.0 °F 14% 29.68 in - North 15.0 mph - N/A   Clear
10:50 AM 87.8 °F 32.0 °F 14% 29.68 in - North 13.8 mph - N/A   Clear
11:20 AM 87.8 °F 30.2 °F 13% 29.68 in - North 13.8 mph - N/A   Clear
11:50 AM 89.6 °F 32.0 °F 13% 29.65 in - North 12.7 mph - N/A   Clear
12:20 PM 91.4 °F 30.2 °F 11% 29.65 in - NNW 20.7 mph - N/A   Clear
12:50 PM 93.2 °F 28.4 °F 10% 29.65 in - NNW 17.3 mph 28.8 mph N/A   Clear
1:20 PM 95.0 °F 30.2 °F 10% 29.65 in - NNW 19.6 mph 31.1 mph N/A   Clear
1:50 PM 95.0 °F 30.2 °F 10% 29.65 in - NNW 18.4 mph - N/A   Clear
2:20 PM 95.0 °F 30.2 °F 10% 29.62 in - North 16.1 mph - N/A   Clear
2:50 PM 96.8 °F 32.0 °F 10% 29.62 in - North 16.1 mph - N/A   Clear
3:00 PM 96 °F 31 °F 5% 29.48 in 12 mi North 16.1 mph - -  
3:20 PM 96.8 °F 32.0 °F 10% 29.62 in - NNW 18.4 mph - N/A   Clear
3:50 PM 96.8 °F 33.8 °F 11% 29.62 in - NW 17.3 mph - N/A   Clear
4:20 PM 96.8 °F 33.8 °F 11% 29.62 in - NNW 17.3 mph - N/A   Clear
4:50 PM 95.0 °F 33.8 °F 12% 29.62 in - NNW 18.4 mph - N/A   Clear
5:20 PM 95.0 °F 32.0 °F 11% 29.62 in - NNW 18.4 mph - N/A   Clear
5:50 PM 95.0 °F 32.0 °F 11% 29.62 in - NNW 18.4 mph - N/A   Clear
6:20 PM 95.0 °F 32.0 °F 11% 29.62 in - NNW 15.0 mph - N/A   Clear
6:50 PM 93.2 °F 35.6 °F 13% 29.62 in - NNW 17.3 mph - N/A   Clear
7:20 PM 91.4 °F 35.6 °F 14% 29.65 in - NNW 13.8 mph - N/A   Clear
7:50 PM 87.8 °F 37.4 °F 17% 29.65 in - NNW 12.7 mph - N/A   Clear
8:20 PM 86.0 °F 37.4 °F 18% 29.65 in - NNW 15.0 mph - N/A   Clear
8:50 PM 84.2 °F 37.4 °F 19% 29.68 in - NNW 13.8 mph - N/A   Clear
9:00 PM 85 °F 36 °F 9% 29.53 in 12 mi NNW 13.8 mph - -  
9:20 PM 84.2 °F 37.4 °F 19% 29.68 in - NNW 13.8 mph - N/A   Clear
9:50 PM 86.0 °F 37.4 °F 18% 29.68 in - NNW 15.0 mph - N/A   Clear
10:20 PM 86.0 °F 39.2 °F 19% 29.68 in - North 17.3 mph - N/A   Clear
10:50 PM 86.0 °F 39.2 °F 19% 29.68 in - North 16.1 mph - N/A   Clear
11:20 PM 84.2 °F 41.0 °F 22% 29.71 in - North 13.8 mph - N/A   Clear
11:50 PM 82.4 °F 41.0 °F 23% 29.71 in - North 9.2 mph - N/A   Clear